Time,TemperatureF,DewpointF,PressureIn,WindDirection,WindDirectionDegrees,WindSpeedMPH,WindSpeedGustMPH,Humidity,HourlyPrecipIn,Conditions,Clouds,dailyrainin,SoftwareType,DateUTC
2013-02-01 00:00:00,39.3,24.9,30.10,SW,218,5.0,15.0,56,0.00,,---,0.01,VWS V14.01,2013-02-01 05:00:00,
2013-02-01 00:03:00,39.3,24.9,30.10,SSW,208,3.0,8.0,56,0.00,,---,0.00,VWS V14.01,2013-02-01 05:03:00,
2013-02-01 00:08:00,39.3,24.9,30.09,SW,233,5.0,16.0,56,0.00,,---,0.00,VWS V14.01,2013-02-01 05:08:00,
2013-02-01 00:13:00,39.4,25.0,30.09,SSW,207,2.0,9.0,56,0.00,,---,0.00,VWS V14.01,2013-02-01 05:13:00,
2013-02-01 00:18:00,39.5,25.1,30.09,West,271,6.0,12.0,56,0.00,,---,0.00,VWS V14.01,2013-02-01 05:18:00,
2013-02-01 00:23:00,39.8,25.4,30.09,WSW,240,14.0,14.0,56,0.00,,---,0.00,VWS V14.01,2013-02-01 05:23:00,
2013-02-01 00:28:00,40.1,25.2,30.09,WSW,242,11.0,17.0,55,0.00,,---,0.00,VWS V14.01,2013-02-01 05:28:00,
2013-02-01 00:33:00,40.3,25.4,30.09,WSW,238,17.0,20.0,55,0.00,,---,0.00,VWS V14.01,2013-02-01 05:33:00,
2013-02-01 00:39:00,40.5,25.6,30.09,SW,235,10.0,20.0,55,0.00,,---,0.00,VWS V14.01,2013-02-01 05:39:00,
2013-02-01 00:44:00,40.6,25.7,30.09,SW,233,4.0,18.0,55,0.00,,---,0.00,VWS V14.01,2013-02-01 05:44:00,
2013-02-01 00:49:00,40.7,25.8,30.09,WSW,250,9.0,21.0,55,0.00,,---,0.00,VWS V14.01,2013-02-01 05:49:00,
2013-02-01 00:54:00,40.7,25.8,30.09,SW,214,5.0,16.0,55,0.00,,---,0.00,VWS V14.01,2013-02-01 05:54:00,
2013-02-01 00:59:00,40.6,25.7,30.08,WSW,242,4.0,14.0,55,0.00,,---,0.00,VWS V14.01,2013-02-01 05:59:00,
2013-02-01 01:04:00,40.4,26.0,30.08,SW,231,5.0,11.0,56,0.00,,---,0.00,VWS V14.01,2013-02-01 06:04:00,
2013-02-01 01:09:00,40.4,26.0,30.08,WSW,250,11.0,14.0,56,0.00,,---,0.00,VWS V14.01,2013-02-01 06:09:00,
2013-02-01 01:14:00,40.4,26.0,30.08,WSW,245,5.0,15.0,56,0.00,,---,0.00,VWS V14.01,2013-02-01 06:14:00,
2013-02-01 01:19:00,40.3,25.9,30.08,SW,224,15.0,16.0,56,0.00,,---,0.00,VWS V14.01,2013-02-01 06:19:00,
2013-02-01 01:24:00,40.3,25.9,30.08,WSW,242,8.0,15.0,56,0.00,,---,0.00,VWS V14.01,2013-02-01 06:24:00,
2013-02-01 01:29:00,40.1,25.7,30.08,SW,214,3.0,14.0,56,0.00,,---,0.00,VWS V14.01,2013-02-01 06:29:00,
2013-02-01 01:34:00,40.0,26.0,30.08,SW,236,4.0,12.0,57,0.00,,---,0.00,VWS V14.01,2013-02-01 06:34:00,
2013-02-01 01:39:00,40.0,26.0,30.09,West,260,8.0,14.0,57,0.00,,---,0.00,VWS V14.01,2013-02-01 06:39:00,
2013-02-01 01:44:00,39.9,25.9,30.08,WSW,246,10.0,14.0,57,0.00,,---,0.00,VWS V14.01,2013-02-01 06:44:00,
2013-02-01 01:49:00,39.8,25.8,30.08,SW,229,9.0,14.0,57,0.00,,---,0.00,VWS V14.01,2013-02-01 06:49:00,
2013-02-01 01:54:00,39.7,25.7,30.08,SSW,210,8.0,12.0,57,0.00,,---,0.00,VWS V14.01,2013-02-01 06:54:00,
2013-02-01 01:59:00,39.7,26.1,30.09,WSW,238,5.0,15.0,58,0.00,,---,0.00,VWS V14.01,2013-02-01 06:59:00,
2013-02-01 02:04:00,39.7,26.1,30.08,SW,224,7.0,16.0,58,0.00,,---,0.00,VWS V14.01,2013-02-01 07:04:00,
2013-02-01 02:09:00,39.8,25.8,30.08,SW,231,8.0,19.0,57,0.00,,---,0.00,VWS V14.01,2013-02-01 07:09:00,
2013-02-01 02:14:00,39.9,25.9,30.08,SW,232,7.0,13.0,57,0.00,,---,0.00,VWS V14.01,2013-02-01 07:14:00,
2013-02-01 02:19:00,39.9,25.9,30.08,WSW,242,9.0,16.0,57,0.00,,---,0.00,VWS V14.01,2013-02-01 07:19:00,
2013-02-01 02:24:00,39.9,25.9,30.08,SW,236,6.0,14.0,57,0.00,,---,0.00,VWS V14.01,2013-02-01 07:24:00,
2013-02-01 02:29:00,39.9,25.9,30.07,SW,217,12.0,15.0,57,0.00,,---,0.00,VWS V14.01,2013-02-01 07:29:00,
2013-02-01 02:34:00,40.2,26.2,30.07,WSW,238,5.0,16.0,57,0.00,,---,0.00,VWS V14.01,2013-02-01 07:34:00,
2013-02-01 02:39:00,40.4,26.0,30.07,WSW,250,10.0,22.0,56,0.00,,---,0.00,VWS V14.01,2013-02-01 07:39:00,
2013-02-01 02:44:00,40.7,26.2,30.06,WSW,237,2.0,22.0,56,0.00,,---,0.00,VWS V14.01,2013-02-01 07:44:00,
2013-02-01 02:49:00,40.7,26.2,30.06,WSW,252,16.0,17.0,56,0.00,,---,0.00,VWS V14.01,2013-02-01 07:49:00,
2013-02-01 02:54:00,40.7,26.2,30.06,WSW,248,6.0,19.0,56,0.00,,---,0.00,VWS V14.01,2013-02-01 07:54:00,
2013-02-01 02:59:00,40.6,26.1,30.05,WSW,248,6.0,16.0,56,0.00,,---,0.00,VWS V14.01,2013-02-01 07:59:00,
2013-02-01 03:04:00,40.7,26.2,30.05,SSW,205,9.0,22.0,56,0.00,,---,0.00,VWS V14.01,2013-02-01 08:04:00,
2013-02-01 03:09:00,40.7,26.7,30.05,SW,228,8.0,22.0,57,0.00,,---,0.00,VWS V14.01,2013-02-01 08:09:00,
2013-02-01 03:14:00,40.6,26.6,30.05,SW,221,7.0,20.0,57,0.00,,---,0.00,VWS V14.01,2013-02-01 08:14:00,
2013-02-01 03:19:00,40.7,26.7,30.05,SSW,210,7.0,20.0,57,0.00,,---,0.00,VWS V14.01,2013-02-01 08:19:00,
2013-02-01 03:24:00,40.7,26.2,30.04,SW,218,16.0,25.0,56,0.00,,---,0.00,VWS V14.01,2013-02-01 08:24:00,
2013-02-01 03:29:00,40.7,26.7,30.04,SW,235,18.0,21.0,57,0.00,,---,0.00,VWS V14.01,2013-02-01 08:29:00,
2013-02-01 03:34:00,40.8,26.3,30.04,SW,225,8.0,24.0,56,0.00,,---,0.00,VWS V14.01,2013-02-01 08:34:00,
2013-02-01 03:39:00,40.9,26.4,30.03,SW,227,11.0,22.0,56,0.00,,---,0.00,VWS V14.01,2013-02-01 08:39:00,
2013-02-01 03:44:00,40.7,26.7,30.03,SSW,197,10.0,15.0,57,0.00,,---,0.00,VWS V14.01,2013-02-01 08:44:00,
2013-02-01 03:49:00,40.8,26.3,30.02,South,190,17.0,22.0,56,0.00,,---,0.00,VWS V14.01,2013-02-01 08:49:00,
2013-02-01 03:54:00,40.9,26.4,30.02,SW,233,12.0,22.0,56,0.00,,---,0.00,VWS V14.01,2013-02-01 08:54:00,
2013-02-01 03:59:00,41.0,26.5,30.02,SW,215,19.0,26.0,56,0.00,,---,0.00,VWS V14.01,2013-02-01 08:59:00,
2013-02-01 04:04:00,41.0,26.5,30.02,SW,229,14.0,19.0,56,0.00,,---,0.00,VWS V14.01,2013-02-01 09:04:00,
2013-02-01 04:09:00,41.0,26.5,30.01,SW,232,7.0,25.0,56,0.00,,---,0.00,VWS V14.01,2013-02-01 09:09:00,
2013-02-01 04:14:00,40.8,26.3,30.01,WSW,253,5.0,18.0,56,0.00,,---,0.00,VWS V14.01,2013-02-01 09:14:00,
2013-02-01 04:19:00,40.8,26.8,30.01,SSW,193,6.0,19.0,57,0.00,,---,0.00,VWS V14.01,2013-02-01 09:19:00,
2013-02-01 04:24:00,40.9,26.4,30.01,SW,236,17.0,21.0,56,0.00,,---,0.00,VWS V14.01,2013-02-01 09:24:00,
2013-02-01 04:29:00,41.0,26.5,30.01,SW,232,10.0,19.0,56,0.00,,---,0.00,VWS V14.01,2013-02-01 09:29:00,
2013-02-01 04:34:00,41.0,27.0,30.01,WSW,240,3.0,20.0,57,0.00,,---,0.00,VWS V14.01,2013-02-01 09:34:00,
2013-02-01 04:39:00,41.1,27.0,30.01,WSW,256,7.0,16.0,57,0.00,,---,0.00,VWS V14.01,2013-02-01 09:39:00,
2013-02-01 04:44:00,41.2,26.7,30.01,WSW,238,17.0,20.0,56,0.00,,---,0.00,VWS V14.01,2013-02-01 09:44:00,
2013-02-01 04:49:00,41.4,26.9,30.01,WSW,252,10.0,21.0,56,0.00,,---,0.00,VWS V14.01,2013-02-01 09:49:00,
2013-02-01 04:54:00,41.5,27.0,30.01,SW,214,10.0,20.0,56,0.00,,---,0.00,VWS V14.01,2013-02-01 09:54:00,
2013-02-01 04:59:00,41.6,27.1,30.01,SW,217,20.0,20.0,56,0.00,,---,0.00,VWS V14.01,2013-02-01 09:59:00,
2013-02-01 05:04:00,41.7,27.2,30.01,WSW,242,6.0,20.0,56,0.00,,---,0.00,VWS V14.01,2013-02-01 10:04:00,
2013-02-01 05:09:00,41.8,26.8,30.01,SW,232,11.0,24.0,55,0.00,,---,0.00,VWS V14.01,2013-02-01 10:09:00,
2013-02-01 05:14:00,42.0,27.0,30.00,WSW,250,11.0,24.0,55,0.00,,---,0.00,VWS V14.01,2013-02-01 10:14:00,
2013-02-01 05:19:00,42.0,27.0,30.00,West,263,10.0,23.0,55,0.00,,---,0.00,VWS V14.01,2013-02-01 10:19:00,
2013-02-01 05:24:00,42.3,27.3,30.00,West,271,11.0,28.0,55,0.00,,---,0.00,VWS V14.01,2013-02-01 10:24:00,
2013-02-01 05:29:00,42.4,27.0,30.00,West,259,10.0,21.0,54,0.00,,---,0.00,VWS V14.01,2013-02-01 10:29:00,
2013-02-01 05:34:00,42.4,27.4,30.01,SW,229,12.0,19.0,55,0.00,,---,0.00,VWS V14.01,2013-02-01 10:34:00,
2013-02-01 05:39:00,42.2,27.2,30.01,SSE,148,8.0,16.0,55,0.00,,---,0.00,VWS V14.01,2013-02-01 10:39:00,
2013-02-01 05:44:00,42.2,27.2,30.01,West,262,9.0,15.0,55,0.00,,---,0.00,VWS V14.01,2013-02-01 10:44:00,
2013-02-01 05:49:00,42.3,27.3,30.01,WSW,240,8.0,18.0,55,0.00,,---,0.00,VWS V14.01,2013-02-01 10:49:00,
2013-02-01 05:54:00,42.3,27.3,30.02,SW,232,17.0,27.0,55,0.00,,---,0.00,VWS V14.01,2013-02-01 10:54:00,
2013-02-01 05:59:00,42.6,27.1,30.02,WSW,250,14.0,23.0,54,0.00,,---,0.00,VWS V14.01,2013-02-01 10:59:00,
2013-02-01 06:04:00,42.6,27.1,30.02,SW,231,16.0,23.0,54,0.00,,---,0.00,VWS V14.01,2013-02-01 11:04:00,
2013-02-01 06:09:00,42.6,27.1,30.02,West,276,6.0,23.0,54,0.00,,---,0.00,VWS V14.01,2013-02-01 11:09:00,
2013-02-01 06:14:00,42.5,27.5,30.03,West,259,6.0,25.0,55,0.00,,---,0.00,VWS V14.01,2013-02-01 11:14:00,
2013-02-01 06:19:00,42.6,27.1,30.03,WSW,248,8.0,22.0,54,0.00,,---,0.00,VWS V14.01,2013-02-01 11:19:00,
2013-02-01 06:24:00,42.5,27.5,30.03,SW,225,14.0,22.0,55,0.00,,---,0.00,VWS V14.01,2013-02-01 11:24:00,
2013-02-01 06:29:00,42.6,27.6,30.03,WSW,238,16.0,24.0,55,0.00,,---,0.00,VWS V14.01,2013-02-01 11:29:00,
2013-02-01 06:34:00,42.6,27.6,30.04,West,263,8.0,19.0,55,0.00,,---,0.00,VWS V14.01,2013-02-01 11:34:00,
2013-02-01 06:40:00,42.5,27.5,30.05,West,261,6.0,21.0,55,0.00,,---,0.00,VWS V14.01,2013-02-01 11:40:00,
2013-02-01 06:44:00,42.5,27.9,30.05,WSW,252,24.0,24.0,56,0.00,,---,0.00,VWS V14.01,2013-02-01 11:44:00,
2013-02-01 06:50:00,42.5,27.9,30.06,WSW,255,7.0,15.0,56,0.00,,---,0.00,VWS V14.01,2013-02-01 11:50:00,
2013-02-01 06:55:00,42.4,27.8,30.06,West,266,2.0,18.0,56,0.00,,---,0.00,VWS V14.01,2013-02-01 11:55:00,
2013-02-01 07:00:00,42.2,28.1,30.07,West,260,14.0,14.0,57,0.00,,---,0.00,VWS V14.01,2013-02-01 12:00:00,
2013-02-01 07:05:00,42.2,28.1,30.07,SW,229,10.0,13.0,57,0.00,,---,0.00,VWS V14.01,2013-02-01 12:05:00,
2013-02-01 07:10:00,42.1,28.4,30.08,SW,232,8.0,15.0,58,0.00,,---,0.00,VWS V14.01,2013-02-01 12:10:00,
2013-02-01 07:15:00,42.2,28.5,30.08,WNW,283,4.0,18.0,58,0.00,,---,0.00,VWS V14.01,2013-02-01 12:15:00,
2013-02-01 07:20:00,42.1,28.4,30.09,NNW,328,5.0,11.0,58,0.00,,---,0.00,VWS V14.01,2013-02-01 12:20:00,
2013-02-01 07:25:00,42.0,28.3,30.10,NW,320,3.0,12.0,58,0.00,,---,0.00,VWS V14.01,2013-02-01 12:25:00,
2013-02-01 07:30:00,41.9,28.2,30.10,NW,313,2.0,14.0,58,0.00,,---,0.00,VWS V14.01,2013-02-01 12:30:00,
2013-02-01 07:35:00,41.8,28.1,30.10,NW,307,9.0,12.0,58,0.00,,---,0.00,VWS V14.01,2013-02-01 12:35:00,
2013-02-01 07:40:00,41.8,28.1,30.11,WNW,290,5.0,10.0,58,0.00,,---,0.00,VWS V14.01,2013-02-01 12:40:00,
2013-02-01 07:45:00,41.7,28.0,30.11,WNW,283,4.0,13.0,58,0.00,,---,0.00,VWS V14.01,2013-02-01 12:45:00,
2013-02-01 07:50:00,41.7,28.4,30.12,WNW,293,1.0,9.0,59,0.00,,---,0.00,VWS V14.01,2013-02-01 12:50:00,
2013-02-01 07:55:00,41.7,28.4,30.12,West,274,1.0,10.0,59,0.00,,---,0.00,VWS V14.01,2013-02-01 12:55:00,
2013-02-01 08:00:00,41.7,28.4,30.12,West,270,4.0,8.0,59,0.00,,---,0.00,VWS V14.01,2013-02-01 13:00:00,
2013-02-01 08:05:00,41.7,28.4,30.13,West,281,8.0,10.0,59,0.00,,---,0.00,VWS V14.01,2013-02-01 13:05:00,
2013-02-01 08:10:00,41.9,28.6,30.14,NW,326,5.0,11.0,59,0.00,,---,0.00,VWS V14.01,2013-02-01 13:10:00,
2013-02-01 08:15:00,41.9,28.6,30.15,WNW,283,7.0,14.0,59,0.00,,---,0.00,VWS V14.01,2013-02-01 13:15:00,
2013-02-01 08:20:00,41.9,28.6,30.15,NW,305,6.0,17.0,59,0.00,,---,0.00,VWS V14.01,2013-02-01 13:20:00,
2013-02-01 08:25:00,41.9,28.2,30.15,WNW,299,4.0,15.0,58,0.00,,---,0.00,VWS V14.01,2013-02-01 13:25:00,
2013-02-01 08:30:00,42.0,27.9,30.15,West,269,8.0,16.0,57,0.00,,---,0.00,VWS V14.01,2013-02-01 13:30:00,
2013-02-01 08:35:00,42.0,27.0,30.16,WNW,294,12.0,17.0,55,0.00,,---,0.00,VWS V14.01,2013-02-01 13:35:00,
2013-02-01 08:40:00,41.8,25.0,30.16,NW,309,10.0,19.0,51,0.00,,---,0.00,VWS V14.01,2013-02-01 13:40:00,
2013-02-01 08:45:00,41.7,24.9,30.17,NNW,339,11.0,16.0,51,0.00,,---,0.00,VWS V14.01,2013-02-01 13:45:00,
2013-02-01 08:50:00,41.6,24.4,30.17,NW,323,12.0,16.0,50,0.00,,---,0.00,VWS V14.01,2013-02-01 13:50:00,
2013-02-01 08:55:00,41.3,23.6,30.18,NNW,337,8.0,19.0,49,0.00,,---,0.00,VWS V14.01,2013-02-01 13:55:00,
2013-02-01 09:00:00,40.9,22.2,30.18,NNW,347,4.0,17.0,47,0.00,,---,0.00,VWS V14.01,2013-02-01 14:00:00,
2013-02-01 09:05:00,40.8,20.0,30.19,NW,323,4.0,15.0,43,0.00,,---,0.00,VWS V14.01,2013-02-01 14:05:00,
2013-02-01 09:10:00,40.6,12.4,30.20,WNW,299,22.0,25.0,31,0.00,,---,0.00,VWS V14.01,2013-02-01 14:10:00,
2013-02-01 09:15:00,40.4,11.4,30.20,North,6,8.0,18.0,30,0.00,,---,0.00,VWS V14.01,2013-02-01 14:15:00,
2013-02-01 09:20:00,39.5,16.6,30.21,NW,323,17.0,22.0,39,0.00,,---,0.00,VWS V14.01,2013-02-01 14:20:00,
2013-02-01 09:25:00,38.6,17.0,30.22,NNW,330,10.0,15.0,41,0.00,,---,0.00,VWS V14.01,2013-02-01 14:25:00,
2013-02-01 09:30:00,38.2,16.6,30.22,NNW,337,4.0,17.0,41,0.00,,---,0.00,VWS V14.01,2013-02-01 14:30:00,
2013-02-01 09:35:00,38.0,14.1,30.23,NE,37,8.0,23.0,37,0.00,,---,0.00,VWS V14.01,2013-02-01 14:35:00,
2013-02-01 09:40:00,37.9,14.0,30.23,NNW,335,13.0,22.0,37,0.00,,---,0.00,VWS V14.01,2013-02-01 14:40:00,
2013-02-01 09:45:00,38.3,15.5,30.24,North,349,14.0,14.0,39,0.00,,---,0.00,VWS V14.01,2013-02-01 14:45:00,
2013-02-01 09:50:00,38.2,14.8,30.24,NW,318,14.0,18.0,38,0.00,,---,0.00,VWS V14.01,2013-02-01 14:50:00,
2013-02-01 09:55:00,38.1,14.1,30.24,NNW,340,15.0,20.0,37,0.00,,---,0.00,VWS V14.01,2013-02-01 14:55:00,
2013-02-01 10:00:00,38.0,14.1,30.24,NNW,340,2.0,21.0,37,0.00,,---,0.00,VWS V14.01,2013-02-01 15:00:00,
2013-02-01 10:05:00,38.0,12.8,30.25,WNW,299,10.0,18.0,35,0.00,,---,0.00,VWS V14.01,2013-02-01 15:05:00,
2013-02-01 10:10:00,37.9,13.4,30.25,NNW,333,16.0,17.0,36,0.00,,---,0.00,VWS V14.01,2013-02-01 15:10:00,
2013-02-01 10:15:00,38.1,13.5,30.25,NNW,336,7.0,16.0,36,0.00,,---,0.00,VWS V14.01,2013-02-01 15:15:00,
2013-02-01 10:20:00,38.4,13.8,30.25,NNW,339,2.0,17.0,36,0.00,,---,0.00,VWS V14.01,2013-02-01 15:20:00,
2013-02-01 10:25:00,38.6,13.3,30.26,NW,315,9.0,17.0,35,0.00,,---,0.00,VWS V14.01,2013-02-01 15:25:00,
2013-02-01 10:30:00,38.5,13.2,30.26,NNW,341,3.0,12.0,35,0.00,,---,0.00,VWS V14.01,2013-02-01 15:30:00,
2013-02-01 10:35:00,39.1,13.8,30.26,NNW,336,3.0,10.0,35,0.00,,---,0.00,VWS V14.01,2013-02-01 15:35:00,
2013-02-01 10:40:00,39.4,14.0,30.27,NE,37,2.0,13.0,35,0.00,,---,0.00,VWS V14.01,2013-02-01 15:40:00,
2013-02-01 10:46:00,39.5,12.1,30.27,NNW,340,9.0,14.0,32,0.00,,---,0.00,VWS V14.01,2013-02-01 15:46:00,
2013-02-01 10:51:00,39.5,12.1,30.27,NNW,336,5.0,12.0,32,0.00,,---,0.00,VWS V14.01,2013-02-01 15:51:00,
2013-02-01 10:56:00,39.6,11.5,30.27,North,9,13.0,14.0,31,0.00,,---,0.00,VWS V14.01,2013-02-01 15:56:00,
2013-02-01 11:01:00,39.7,11.6,30.27,NW,315,4.0,19.0,31,0.00,,---,0.00,VWS V14.01,2013-02-01 16:01:00,
2013-02-01 11:06:00,39.8,9.4,30.27,NW,309,5.0,18.0,28,0.00,,---,0.00,VWS V14.01,2013-02-01 16:06:00,
2013-02-01 11:11:00,39.5,9.9,30.28,WNW,285,12.0,19.0,29,0.00,,---,0.00,VWS V14.01,2013-02-01 16:11:00,
2013-02-01 11:16:00,39.4,9.8,30.28,NNW,339,8.0,14.0,29,0.00,,---,0.00,VWS V14.01,2013-02-01 16:16:00,
2013-02-01 11:21:00,39.5,8.3,30.28,NW,309,11.0,16.0,27,0.00,,---,0.00,VWS V14.01,2013-02-01 16:21:00,
2013-02-01 11:26:00,39.5,9.1,30.28,NE,37,1.0,16.0,28,0.00,,---,0.00,VWS V14.01,2013-02-01 16:26:00,
2013-02-01 11:31:00,39.8,9.4,30.28,NNE,30,1.0,13.0,28,0.00,,---,0.00,VWS V14.01,2013-02-01 16:31:00,
2013-02-01 11:36:00,39.9,7.8,30.28,WNW,295,6.0,12.0,26,0.00,,---,0.00,VWS V14.01,2013-02-01 16:36:00,
2013-02-01 11:41:00,40.1,8.0,30.29,NNW,340,6.0,11.0,26,0.00,,---,0.00,VWS V14.01,2013-02-01 16:41:00,
2013-02-01 11:46:00,39.8,7.7,30.29,NNW,348,7.0,13.0,26,0.00,,---,0.00,VWS V14.01,2013-02-01 16:46:00,
2013-02-01 11:51:00,39.0,5.3,30.29,NW,326,7.0,7.0,24,0.00,,---,0.00,VWS V14.01,2013-02-01 16:51:00,
2013-02-01 11:56:00,38.7,5.0,30.29,NNW,342,9.0,16.0,24,0.00,,---,0.00,VWS V14.01,2013-02-01 16:56:00,
2013-02-01 12:01:00,38.7,5.9,30.29,NNE,12,5.0,16.0,25,0.00,,---,0.00,VWS V14.01,2013-02-01 17:01:00,
2013-02-01 12:06:00,39.0,6.2,30.29,North,10,2.0,2.0,25,0.00,,---,0.00,VWS V14.01,2013-02-01 17:06:00,
2013-02-01 12:11:00,39.0,6.2,30.29,NNW,337,7.0,13.0,25,0.00,,---,0.00,VWS V14.01,2013-02-01 17:11:00,
2013-02-01 12:16:00,39.0,5.3,30.29,NNW,335,8.0,16.0,24,0.00,,---,0.00,VWS V14.01,2013-02-01 17:16:00,
2013-02-01 12:21:00,38.9,6.1,30.29,NW,312,2.0,11.0,25,0.00,,---,0.00,VWS V14.01,2013-02-01 17:21:00,
2013-02-01 12:26:00,38.9,6.1,30.29,NNW,331,4.0,12.0,25,0.00,,---,0.00,VWS V14.01,2013-02-01 17:26:00,
2013-02-01 12:31:00,39.0,6.2,30.29,North,351,4.0,13.0,25,0.00,,---,0.00,VWS V14.01,2013-02-01 17:31:00,
2013-02-01 12:36:00,39.3,5.5,30.29,NNW,327,2.0,16.0,24,0.00,,---,0.00,VWS V14.01,2013-02-01 17:36:00,
2013-02-01 12:41:00,39.4,6.5,30.29,NNW,343,3.0,14.0,25,0.00,,---,0.00,VWS V14.01,2013-02-01 17:41:00,
2013-02-01 12:46:00,39.7,6.8,30.29,North,356,14.0,14.0,25,0.00,,---,0.00,VWS V14.01,2013-02-01 17:46:00,
2013-02-01 12:51:00,39.8,6.0,30.29,NW,314,7.0,19.0,24,0.00,,---,0.00,VWS V14.01,2013-02-01 17:51:00,
2013-02-01 12:56:00,39.5,5.7,30.29,WNW,300,7.0,7.0,24,0.00,,---,0.00,VWS V14.01,2013-02-01 17:56:00,
2013-02-01 13:01:00,39.6,5.8,30.29,NW,326,8.0,19.0,24,0.00,,---,0.00,VWS V14.01,2013-02-01 18:01:00,
2013-02-01 13:06:00,39.9,6.9,30.29,NNW,331,2.0,2.0,25,0.00,,---,0.00,VWS V14.01,2013-02-01 18:06:00,
2013-02-01 13:11:00,39.9,6.1,30.28,North,352,7.0,12.0,24,0.00,,---,0.00,VWS V14.01,2013-02-01 18:11:00,
2013-02-01 13:16:00,39.9,6.9,30.28,NNW,328,3.0,5.0,25,0.00,,---,0.00,VWS V14.01,2013-02-01 18:16:00,
2013-02-01 13:21:00,39.8,5.0,30.28,NNW,340,3.0,7.0,23,0.00,,---,0.00,VWS V14.01,2013-02-01 18:21:00,
2013-02-01 13:26:00,40.1,6.2,30.28,NNW,345,8.0,10.0,24,0.00,,---,0.00,VWS V14.01,2013-02-01 18:26:00,
2013-02-01 13:31:00,40.6,6.7,30.28,NW,318,6.0,9.0,24,0.00,,---,0.00,VWS V14.01,2013-02-01 18:31:00,
2013-02-01 13:36:00,40.3,8.1,30.28,North,352,1.0,3.0,26,0.00,,---,0.00,VWS V14.01,2013-02-01 18:36:00,
2013-02-01 13:41:00,40.3,6.4,30.28,NW,305,5.0,5.0,24,0.00,,---,0.00,VWS V14.01,2013-02-01 18:41:00,
2013-02-01 13:46:00,40.2,6.3,30.28,WNW,283,2.0,3.0,24,0.00,,---,0.00,VWS V14.01,2013-02-01 18:46:00,
2013-02-01 13:51:00,40.2,7.2,30.29,NNW,337,12.0,12.0,25,0.00,,---,0.00,VWS V14.01,2013-02-01 18:51:00,
2013-02-01 13:56:00,39.8,6.0,30.29,NW,318,5.0,5.0,24,0.00,,---,0.00,VWS V14.01,2013-02-01 18:56:00,
2013-02-01 14:01:00,40.3,9.0,30.29,WNW,299,6.0,6.0,27,0.00,,---,0.00,VWS V14.01,2013-02-01 19:01:00,
2013-02-01 14:06:00,40.5,7.5,30.29,WNW,288,8.0,8.0,25,0.00,,---,0.00,VWS V14.01,2013-02-01 19:06:00,
2013-02-01 14:11:00,40.7,7.6,30.29,NNW,340,2.0,6.0,25,0.00,,---,0.00,VWS V14.01,2013-02-01 19:11:00,
2013-02-01 14:16:00,40.8,6.8,30.29,NNW,335,11.0,13.0,24,0.00,,---,0.00,VWS V14.01,2013-02-01 19:16:00,
2013-02-01 14:21:00,40.7,6.7,30.29,NE,49,5.0,6.0,24,0.00,,---,0.00,VWS V14.01,2013-02-01 19:21:00,
2013-02-01 14:26:00,41.0,7.9,30.29,ENE,58,4.0,7.0,25,0.00,,---,0.00,VWS V14.01,2013-02-01 19:26:00,
2013-02-01 14:31:00,41.2,8.1,30.28,WNW,303,7.0,13.0,25,0.00,,---,0.00,VWS V14.01,2013-02-01 19:31:00,
2013-02-01 14:36:00,41.3,8.1,30.28,NW,320,5.0,9.0,25,0.00,,---,0.00,VWS V14.01,2013-02-01 19:36:00,
2013-02-01 14:41:00,41.1,7.1,30.29,NW,304,2.0,7.0,24,0.00,,---,0.00,VWS V14.01,2013-02-01 19:41:00,
2013-02-01 14:46:00,41.2,8.1,30.29,NNW,328,2.0,2.0,25,0.00,,---,0.00,VWS V14.01,2013-02-01 19:46:00,
2013-02-01 14:51:00,41.3,8.1,30.29,North,6,4.0,7.0,25,0.00,,---,0.00,VWS V14.01,2013-02-01 19:51:00,
2013-02-01 14:56:00,41.8,9.4,30.29,NW,326,3.0,8.0,26,0.00,,---,0.00,VWS V14.01,2013-02-01 19:56:00,
2013-02-01 15:01:00,41.8,8.6,30.29,WNW,288,8.0,12.0,25,0.00,,---,0.00,VWS V14.01,2013-02-01 20:01:00,
2013-02-01 15:06:00,41.2,7.2,30.29,NNW,339,5.0,9.0,24,0.00,,---,0.00,VWS V14.01,2013-02-01 20:06:00,
2013-02-01 15:11:00,41.1,7.1,30.29,NNE,12,4.0,10.0,24,0.00,,---,0.00,VWS V14.01,2013-02-01 20:11:00,
2013-02-01 15:16:00,41.2,7.2,30.29,NNW,348,5.0,9.0,24,0.00,,---,0.00,VWS V14.01,2013-02-01 20:16:00,
2013-02-01 15:21:00,41.2,7.2,30.29,North,358,6.0,8.0,24,0.00,,---,0.00,VWS V14.01,2013-02-01 20:21:00,
2013-02-01 15:26:00,41.1,7.1,30.28,East,81,1.0,4.0,24,0.00,,---,0.00,VWS V14.01,2013-02-01 20:26:00,
2013-02-01 15:31:00,41.7,8.5,30.28,NNW,333,5.0,8.0,25,0.00,,---,0.00,VWS V14.01,2013-02-01 20:31:00,
2013-02-01 15:36:00,41.7,7.6,30.28,NNW,331,4.0,12.0,24,0.00,,---,0.00,VWS V14.01,2013-02-01 20:36:00,
2013-02-01 15:41:00,41.5,8.3,30.28,NNE,30,3.0,5.0,25,0.00,,---,0.00,VWS V14.01,2013-02-01 20:41:00,
2013-02-01 15:46:00,41.6,7.5,30.29,NNW,328,3.0,3.0,24,0.00,,---,0.00,VWS V14.01,2013-02-01 20:46:00,
2013-02-01 15:51:00,41.7,8.5,30.29,NE,37,2.0,4.0,25,0.00,,---,0.00,VWS V14.01,2013-02-01 20:51:00,
2013-02-01 15:56:00,41.9,7.8,30.29,North,354,8.0,10.0,24,0.00,,---,0.00,VWS V14.01,2013-02-01 20:56:00,
2013-02-01 16:01:00,41.5,7.4,30.29,NNE,20,1.0,5.0,24,0.00,,---,0.00,VWS V14.01,2013-02-01 21:01:00,
2013-02-01 16:06:00,41.7,7.6,30.29,NNW,335,1.0,2.0,24,0.00,,---,0.00,VWS V14.01,2013-02-01 21:06:00,
2013-02-01 16:11:00,42.0,7.8,30.29,NE,39,1.0,8.0,24,0.00,,---,0.00,VWS V14.01,2013-02-01 21:11:00,
2013-02-01 16:16:00,42.0,7.8,30.30,NNW,340,2.0,4.0,24,0.00,,---,0.00,VWS V14.01,2013-02-01 21:16:00,
2013-02-01 16:21:00,41.8,6.7,30.30,NE,39,2.0,6.0,23,0.00,,---,0.00,VWS V14.01,2013-02-01 21:21:00,
2013-02-01 16:26:00,41.7,7.6,30.30,NNW,342,3.0,4.0,24,0.00,,---,0.00,VWS V14.01,2013-02-01 21:26:00,
2013-02-01 16:31:00,41.7,6.7,30.30,NW,318,1.0,4.0,23,0.00,,---,0.00,VWS V14.01,2013-02-01 21:31:00,
2013-02-01 16:36:00,41.7,7.6,30.30,NW,315,0.0,1.0,24,0.00,,---,0.00,VWS V14.01,2013-02-01 21:36:00,
2013-02-01 16:41:00,41.7,7.6,30.30,NNW,340,4.0,4.0,24,0.00,,---,0.00,VWS V14.01,2013-02-01 21:41:00,
2013-02-01 16:47:00,41.5,7.4,30.30,NNW,346,1.0,4.0,24,0.00,,---,0.00,VWS V14.01,2013-02-01 21:47:00,
2013-02-01 16:52:00,41.5,7.4,30.30,NNW,333,2.0,6.0,24,0.00,,---,0.00,VWS V14.01,2013-02-01 21:52:00,
2013-02-01 16:57:00,41.2,7.2,30.30,NE,39,4.0,4.0,24,0.00,,---,0.00,VWS V14.01,2013-02-01 21:57:00,
2013-02-01 17:02:00,41.2,8.1,30.30,NE,52,0.0,3.0,25,0.00,,---,0.00,VWS V14.01,2013-02-01 22:02:00,
2013-02-01 17:07:00,41.2,8.9,30.31,WNW,303,5.0,6.0,26,0.00,,---,0.00,VWS V14.01,2013-02-01 22:07:00,
2013-02-01 17:12:00,41.2,8.1,30.31,NNW,344,0.0,1.0,25,0.00,,---,0.00,VWS V14.01,2013-02-01 22:12:00,
2013-02-01 17:17:00,41.1,7.1,30.31,NE,35,1.0,4.0,24,0.00,,---,0.00,VWS V14.01,2013-02-01 22:17:00,
2013-02-01 17:22:00,40.9,7.8,30.31,North,359,2.0,4.0,25,0.00,,---,0.00,VWS V14.01,2013-02-01 22:22:00,
2013-02-01 17:27:00,40.8,8.6,30.31,ENE,66,2.0,3.0,26,0.00,,---,0.00,VWS V14.01,2013-02-01 22:27:00,
2013-02-01 17:32:00,40.6,7.6,30.31,North,10,1.0,6.0,25,0.00,,---,0.00,VWS V14.01,2013-02-01 22:32:00,
2013-02-01 17:37:00,40.3,8.1,30.32,NNW,340,1.0,1.0,26,0.00,,---,0.00,VWS V14.01,2013-02-01 22:37:00,
2013-02-01 17:42:00,40.0,7.0,30.31,NNE,32,1.0,5.0,25,0.00,,---,0.00,VWS V14.01,2013-02-01 22:42:00,
2013-02-01 17:47:00,39.7,7.6,30.32,North,350,1.0,2.0,26,0.00,,---,0.00,VWS V14.01,2013-02-01 22:47:00,
2013-02-01 17:52:00,39.2,8.0,30.32,NW,321,1.0,1.0,27,0.00,,---,0.00,VWS V14.01,2013-02-01 22:52:00,
2013-02-01 17:57:00,38.5,7.4,30.32,NW,322,0.0,0.0,27,0.00,,---,0.00,VWS V14.01,2013-02-01 22:57:00,
2013-02-01 18:02:00,38.0,7.8,30.32,NNW,337,0.0,0.0,28,0.00,,---,0.00,VWS V14.01,2013-02-01 23:02:00,
2013-02-01 18:07:00,37.5,8.1,30.32,NE,37,0.0,2.0,29,0.00,,---,0.00,VWS V14.01,2013-02-01 23:07:00,
2013-02-01 18:12:00,37.2,7.9,30.33,NNE,26,0.0,0.0,29,0.00,,---,0.00,VWS V14.01,2013-02-01 23:12:00,
2013-02-01 18:17:00,36.8,7.5,30.33,NNE,23,0.0,1.0,29,0.00,,---,0.00,VWS V14.01,2013-02-01 23:17:00,
2013-02-01 18:22:00,36.5,7.3,30.33,NE,47,2.0,4.0,29,0.00,,---,0.00,VWS V14.01,2013-02-01 23:22:00,
2013-02-01 18:27:00,36.2,7.0,30.33,NE,39,0.0,1.0,29,0.00,,---,0.00,VWS V14.01,2013-02-01 23:27:00,
2013-02-01 18:32:00,35.9,6.8,30.33,NE,38,0.0,2.0,29,0.00,,---,0.00,VWS V14.01,2013-02-01 23:32:00,
2013-02-01 18:37:00,35.7,6.6,30.33,NNE,20,0.0,0.0,29,0.00,,---,0.00,VWS V14.01,2013-02-01 23:37:00,
2013-02-01 18:42:00,35.5,6.4,30.33,North,5,0.0,1.0,29,0.00,,---,0.00,VWS V14.01,2013-02-01 23:42:00,
2013-02-01 18:47:00,35.3,6.2,30.34,NNE,25,0.0,1.0,29,0.00,,---,0.00,VWS V14.01,2013-02-01 23:47:00,
2013-02-01 18:52:00,35.0,6.7,30.34,NNE,27,0.0,1.0,30,0.00,,---,0.00,VWS V14.01,2013-02-01 23:52:00,
2013-02-01 18:57:00,34.8,5.8,30.34,NNE,27,0.0,1.0,29,0.00,,---,0.00,VWS V14.01,2013-02-01 23:57:00,
2013-02-01 19:02:00,34.8,5.8,30.34,NE,34,0.0,1.0,29,0.00,,---,0.00,VWS V14.01,2013-02-02 00:02:00,
2013-02-01 19:07:00,34.9,5.1,30.34,NE,52,0.0,1.0,28,0.00,,---,0.00,VWS V14.01,2013-02-02 00:07:00,
2013-02-01 19:12:00,34.9,5.1,30.34,NE,50,0.0,1.0,28,0.00,,---,0.00,VWS V14.01,2013-02-02 00:12:00,
2013-02-01 19:17:00,34.9,5.1,30.34,NE,42,0.0,0.0,28,0.00,,---,0.00,VWS V14.01,2013-02-02 00:17:00,
2013-02-01 19:22:00,34.9,5.1,30.34,North,354,0.0,0.0,28,0.00,,---,0.00,VWS V14.01,2013-02-02 00:22:00,
2013-02-01 19:27:00,34.8,5.0,30.34,NNE,20,0.0,2.0,28,0.00,,---,0.00,VWS V14.01,2013-02-02 00:27:00,
2013-02-01 19:32:00,34.7,4.9,30.35,NNW,342,0.0,2.0,28,0.00,,---,0.00,VWS V14.01,2013-02-02 00:32:00,
2013-02-01 19:37:00,34.5,4.8,30.35,NNE,26,0.0,1.0,28,0.00,,---,0.00,VWS V14.01,2013-02-02 00:37:00,
2013-02-01 19:42:00,34.2,5.3,30.35,NNE,18,0.0,1.0,29,0.00,,---,0.00,VWS V14.01,2013-02-02 00:42:00,
2013-02-01 19:47:00,33.9,5.0,30.35,North,351,0.0,2.0,29,0.00,,---,0.00,VWS V14.01,2013-02-02 00:47:00,
2013-02-01 19:52:00,33.8,4.9,30.35,North,11,0.0,2.0,29,0.00,,---,0.00,VWS V14.01,2013-02-02 00:52:00,
2013-02-01 19:57:00,33.5,5.4,30.36,NNE,16,0.0,0.0,30,0.00,,---,0.00,VWS V14.01,2013-02-02 00:57:00,
2013-02-01 20:02:00,33.1,5.8,30.36,NNE,32,0.0,1.0,31,0.00,,---,0.00,VWS V14.01,2013-02-02 01:02:00,
2013-02-01 20:07:00,32.9,5.6,30.36,NNE,27,0.0,1.0,31,0.00,,---,0.00,VWS V14.01,2013-02-02 01:07:00,
2013-02-01 20:12:00,32.8,5.5,30.36,NNE,27,0.0,1.0,31,0.00,,---,0.00,VWS V14.01,2013-02-02 01:12:00,
2013-02-01 20:17:00,32.7,5.4,30.37,North,359,0.0,1.0,31,0.00,,---,0.00,VWS V14.01,2013-02-02 01:17:00,
2013-02-01 20:23:00,32.5,5.9,30.37,North,353,1.0,1.0,32,0.00,,---,0.00,VWS V14.01,2013-02-02 01:23:00,
2013-02-01 20:28:00,32.4,5.8,30.37,NNW,343,1.0,1.0,32,0.00,,---,0.00,VWS V14.01,2013-02-02 01:28:00,
2013-02-01 20:33:00,32.4,5.8,30.37,NNW,332,1.0,2.0,32,0.00,,---,0.00,VWS V14.01,2013-02-02 01:33:00,
2013-02-01 20:38:00,32.4,5.8,30.37,NNW,341,0.0,3.0,32,0.00,,---,0.00,VWS V14.01,2013-02-02 01:38:00,
2013-02-01 20:43:00,32.3,6.4,30.37,NNW,341,0.0,1.0,33,0.00,,---,0.00,VWS V14.01,2013-02-02 01:43:00,
2013-02-01 20:48:00,31.9,6.7,30.37,NNW,341,0.0,0.0,34,0.00,,---,0.00,VWS V14.01,2013-02-02 01:48:00,
2013-02-01 20:53:00,31.8,6.0,30.37,NNW,342,0.0,1.0,33,0.00,,---,0.00,VWS V14.01,2013-02-02 01:53:00,
2013-02-01 20:58:00,31.9,6.1,30.38,NNW,342,0.0,0.0,33,0.00,,---,0.00,VWS V14.01,2013-02-02 01:58:00,
2013-02-01 21:03:00,31.8,6.0,30.38,NNW,341,0.0,0.0,33,0.00,,---,0.00,VWS V14.01,2013-02-02 02:03:00,
2013-02-01 21:08:00,31.6,5.8,30.38,NNW,341,0.0,0.0,33,0.00,,---,0.00,VWS V14.01,2013-02-02 02:08:00,
2013-02-01 21:13:00,31.4,5.6,30.38,NNW,341,0.0,0.0,33,0.00,,---,0.00,VWS V14.01,2013-02-02 02:13:00,
2013-02-01 21:18:00,31.0,5.9,30.39,NNW,341,0.0,0.0,34,0.00,,---,0.00,VWS V14.01,2013-02-02 02:18:00,
2013-02-01 21:23:00,30.9,5.8,30.39,NNW,341,0.0,0.0,34,0.00,,---,0.00,VWS V14.01,2013-02-02 02:23:00,
2013-02-01 21:28:00,30.8,5.8,30.39,NNW,341,0.0,0.0,34,0.00,,---,0.00,VWS V14.01,2013-02-02 02:28:00,
2013-02-01 21:33:00,30.6,6.2,30.39,NNW,345,0.0,0.0,35,0.00,,---,0.00,VWS V14.01,2013-02-02 02:33:00,
2013-02-01 21:38:00,30.5,5.5,30.39,NE,37,1.0,2.0,34,0.00,,---,0.00,VWS V14.01,2013-02-02 02:38:00,
2013-02-01 21:43:00,30.8,5.8,30.39,NE,42,2.0,3.0,34,0.00,,---,0.00,VWS V14.01,2013-02-02 02:43:00,
2013-02-01 21:48:00,31.0,5.9,30.39,NE,39,0.0,1.0,34,0.00,,---,0.00,VWS V14.01,2013-02-02 02:48:00,
2013-02-01 21:53:00,31.2,4.8,30.39,NE,37,2.0,2.0,32,0.00,,---,0.00,VWS V14.01,2013-02-02 02:53:00,
2013-02-01 21:58:00,31.4,5.0,30.39,NE,51,2.0,6.0,32,0.00,,---,0.00,VWS V14.01,2013-02-02 02:58:00,
2013-02-01 22:03:00,31.5,5.7,30.39,NE,37,0.0,4.0,33,0.00,,---,0.00,VWS V14.01,2013-02-02 03:03:00,
2013-02-01 22:08:00,31.4,5.6,30.39,NE,38,1.0,4.0,33,0.00,,---,0.00,VWS V14.01,2013-02-02 03:08:00,
2013-02-01 22:13:00,31.2,6.1,30.39,NE,54,4.0,7.0,34,0.00,,---,0.00,VWS V14.01,2013-02-02 03:13:00,
2013-02-01 22:18:00,31.1,6.7,30.40,NE,49,1.0,7.0,35,0.00,,---,0.00,VWS V14.01,2013-02-02 03:18:00,
2013-02-01 22:23:00,30.9,6.5,30.40,NE,35,0.0,2.0,35,0.00,,---,0.00,VWS V14.01,2013-02-02 03:23:00,
2013-02-01 22:28:00,30.8,6.4,30.39,NE,44,4.0,4.0,35,0.00,,---,0.00,VWS V14.01,2013-02-02 03:28:00,
2013-02-01 22:33:00,30.6,6.2,30.39,NE,54,0.0,2.0,35,0.00,,---,0.00,VWS V14.01,2013-02-02 03:33:00,
2013-02-01 22:38:00,30.4,6.0,30.40,ESE,110,0.0,1.0,35,0.00,,---,0.00,VWS V14.01,2013-02-02 03:38:00,
2013-02-01 22:43:00,30.2,6.5,30.40,NE,46,1.0,2.0,36,0.00,,---,0.00,VWS V14.01,2013-02-02 03:43:00,
2013-02-01 22:48:00,30.1,6.4,30.39,NE,50,0.0,4.0,36,0.00,,---,0.00,VWS V14.01,2013-02-02 03:48:00,
2013-02-01 22:53:00,30.0,6.9,30.39,NE,50,3.0,5.0,37,0.00,,---,0.00,VWS V14.01,2013-02-02 03:53:00,
2013-02-01 22:58:00,29.9,6.8,30.39,ENE,60,2.0,5.0,37,0.00,,---,0.00,VWS V14.01,2013-02-02 03:58:00,
2013-02-01 23:03:00,29.7,7.2,30.39,NE,51,0.0,4.0,38,0.00,,---,0.00,VWS V14.01,2013-02-02 04:03:00,
2013-02-01 23:08:00,29.5,7.0,30.39,NE,41,0.0,3.0,38,0.00,,---,0.00,VWS V14.01,2013-02-02 04:08:00,
2013-02-01 23:13:00,29.3,7.4,30.39,NE,50,1.0,3.0,39,0.00,,---,0.00,VWS V14.01,2013-02-02 04:13:00,
2013-02-01 23:18:00,29.2,7.9,30.40,ENE,59,3.0,6.0,40,0.00,,---,0.00,VWS V14.01,2013-02-02 04:18:00,
2013-02-01 23:23:00,29.2,7.9,30.40,ENE,58,1.0,5.0,40,0.00,,---,0.00,VWS V14.01,2013-02-02 04:23:00,
2013-02-01 23:28:00,29.1,7.8,30.40,NNW,345,1.0,4.0,40,0.00,,---,0.00,VWS V14.01,2013-02-02 04:28:00,
2013-02-01 23:33:00,29.0,8.3,30.39,NE,51,3.0,5.0,41,0.00,,---,0.00,VWS V14.01,2013-02-02 04:33:00,
2013-02-01 23:38:00,28.9,8.2,30.40,NE,44,6.0,8.0,41,0.00,,---,0.00,VWS V14.01,2013-02-02 04:38:00,
2013-02-01 23:43:00,29.0,7.7,30.40,NE,37,2.0,9.0,40,0.00,,---,0.00,VWS V14.01,2013-02-02 04:43:00,
2013-02-01 23:48:00,29.0,7.7,30.40,NE,38,4.0,5.0,40,0.00,,---,0.00,VWS V14.01,2013-02-02 04:48:00,
2013-02-01 23:54:00,28.9,8.2,30.40,NNE,15,0.0,8.0,41,0.00,,---,0.00,VWS V14.01,2013-02-02 04:54:00,
2013-02-01 23:59:00,28.6,7.9,30.41,NE,37,3.0,5.0,41,0.00,,---,0.00,VWS V14.01,2013-02-02 04:59:00,